Regional Weather Roundup
Issued by NWS

Home | Current Version | Previous Version | Graphics & Text | Print | Product List | Glossary On
Versions: 1 2 3 4 5 6 7 8 9 10 11 12 13 14 15 16 17 18 19 20 21 22 23 24 25 26 27 28 29 30 31 32 33 34 35 36 37 38 39 40 41 42 43 44 45 46 47 48 49 50
000
ASUS43 KFSD 300610
RWRSD

WEATHER ROUNDUP FOR SOUTH DAKOTA
NATIONAL WEATHER SERVICE SIOUX FALLS SD
100 AM CDT THU OCT 30 2014

NOTE: "FAIR" INDICATES FEW OR NO CLOUDS BELOW 12,000 FEET WITH NO
SIGNIFICANT WEATHER AND/OR OBSTRUCTIONS TO VISIBILITY.


SDZ001>005-009-010-012>017-300700-
NORTHWEST AND NORTH CENTRAL SOUTH DAKOTA

CITY           SKY/WX    TMP DP  RH WIND       PRES   REMARKS
BUFFALO          N/A     38  32  79 W12       30.01R
FAITH            N/A     44  36  73 W13       30.03S
MOBRIDGE       CLEAR     41  34  76 NW9       29.96R
$$

SDZ012>016-024>037-041>051-057-063-072>074-300700-
SOUTHWEST AND SOUTH CENTRAL SOUTH DAKOTA

CITY           SKY/WX    TMP DP  RH WIND       PRES   REMARKS
RAPID CTY ARPT CLEAR     43  32  65 NW13      30.11R
PIERRE         CLEAR     46  36  68 W9        29.99R
CUSTER         CLEAR     44  27  51 VRB6      30.16R
ELLSWORTH AFB  CLEAR     37  31  79 W8        30.11R
PHILIP         CLEAR     36  30  79 W9        30.06R
PINE RIDGE     MOCLDY    35  28  75 CALM      30.12R
SPEARFISH      FAIR      45  32  61 W8        30.16R
WINNER         FAIR      46  28  49 W12       30.02R
$$

SDZ004>011-016>023-039-040-300700-
NORTHEAST SOUTH DAKOTA

CITY           SKY/WX    TMP DP  RH WIND       PRES   REMARKS
ABERDEEN       CLOUDY    45  37  73 CALM      29.97R
WATERTOWN      CLOUDY    42  35  76 SE6       29.96F
SISSETON         N/A     39  38  96 S5        29.99F
$$

SDZ017-020-022-023-036>040-048>070-300700-
SOUTHEAST SOUTH DAKOTA

CITY           SKY/WX    TMP DP  RH WIND       PRES   REMARKS
SIOUX FALLS    CLOUDY    47  32  56 S10       29.99S
HURON          CLOUDY    46  33  60 S7        29.96R
CHAMBERLAIN    CLEAR     44  31  59 W8        29.98S
MITCHELL       CLOUDY    47  34  60 S5        29.97S
YANKTON        CLOUDY    46  34  61 SE7       29.99F
$$

ABBREVIATIONS USED IN REMARKS
   TC - TEMPERATURE IN CELSIUS
  WCI - WIND CHILL INDEX
   HX - HEAT INDEX
  VSB - VISIBILITY




USA.gov is the U.S. government's official web portal to all federal, state and local government web resources and services.